Flag for U.S.A. Weather past 2 weeks in Santa Clara, California, U.S.A.

Now
67 °F

Haze.


Feels Like: 67 °F
Forecast: 61 / 90 °F
Wind: No wind

Location: San Jose International Airport

Current Time: Aug 1, 2014 at 9:52:00 AM

Latest Report: Aug 1, 2014 at 8:53 AM


Visibility: 6 mi

Pressure: 29.91 "Hg

Humidity: 79%

Dew point: 60 °F

Location of Santa ClaraLocation

Historic Weather in Santa Clara — Graph

°F

Santa Clara temperature yesterday

Maximum temperature yesterday: 80 °F (at 2:53 PM)
Minimum temperature yesterday: 61 °F (at 12:53 AM)
Average temperature yesterday: 69 °F

Past Weeks' High & Low Weather Summary

 TemperatureHumidityPressure
High94 °F (Jul 25, 3:53 PM)93% (Jul 24, 5:53 AM)30.14 "Hg (Jul 24, 5:53 AM)
Low59 °F (Jul 23, 5:53 AM)17% (Jul 25, 3:53 PM)29.80 "Hg (Jul 25, 5:53 PM)
Average70 °F67%29.97 "Hg
* Reported Jul 17 7:53 AM — Aug 1 7:53 AM, Santa Clara, Weather by CustomWeather, © 2014

Note: Actual official high and low records may vary slightly from our data, if they occured in-between our weather recording intervals... More about our weather records

Advertising

Santa Clara weather history for previous 24 hours

 ConditionsComfort  
Time TempWeatherWind HumidityBarometerVisibility
7:53 AM
Aug 1
64 °FScattered clouds.No wind84%29.91 "Hg8 mi
6:53 AM61 °FPassing clouds.No wind93%29.90 "Hg9 mi
5:53 AM61 °FPartly cloudy.No wind93%29.90 "Hg9 mi
4:53 AM61 °FClear.5 mph93%29.89 "Hg9 mi
3:53 AM61 °FClear.3 mph93%29.89 "Hg9 mi
2:53 AM62 °FClear.3 mph93%29.89 "Hg9 mi
1:53 AM63 °FClear.3 mph90%29.90 "Hg10 mi
12:53 AM64 °FClear.3 mph90%29.90 "Hg10 mi
11:53 PM
Jul 31
64 °FPassing clouds.3 mph87%29.91 "Hg10 mi
10:53 PM65 °FPassing clouds.6 mph87%29.92 "Hg10 mi
9:53 PM67 °FPassing clouds.7 mph79%29.91 "Hg10 mi
8:53 PM68 °FScattered clouds.7 mph76%29.90 "Hg10 mi
7:53 PM71 °FScattered clouds.8 mph66%29.89 "Hg10 mi
6:53 PM75 °FScattered clouds.9 mph55%29.88 "Hg10 mi
5:53 PM77 °FPassing clouds.9 mph54%29.88 "Hg10 mi
4:53 PM79 °FScattered clouds.10 mph52%29.88 "Hg10 mi
3:53 PM79 °FPassing clouds.9 mph52%29.90 "Hg10 mi
2:53 PM80 °FPassing clouds.9 mph51%29.91 "Hg10 mi
1:53 PM79 °FScattered clouds.7 mph52%29.93 "Hg10 mi
12:53 PM77 °FScattered clouds.7 mph54%29.95 "Hg10 mi
11:53 AM74 °FPartly sunny.6 mph60%29.96 "Hg10 mi
10:53 AM69 °FPartly sunny.5 mph70%29.97 "Hg10 mi
9:53 AM67 °FScattered clouds.5 mph76%29.98 "Hg10 mi
Weather by CustomWeather, © 2014

See weather overviewHow to use our weather pages